Regional Weather Roundup
Issued by NWS

Home | Current Version | Previous Version | Graphics & Text | Print | Product List | Glossary On
Versions: 1 2 3 4 5 6 7 8 9 10 11 12 13 14 15 16 17 18 19 20 21 22 23 24 25 26 27 28 29 30 31 32 33 34 35 36 37 38 39 40 41 42 43 44 45 46 47 48 49 50
000
ASUS43 KDMX 251906
RWRIA

WEATHER ROUNDUP FOR IOWA
NATIONAL WEATHER SERVICE DES MOINES IA
200 PM CDT TUE APR 25 2017

NOTE: "FAIR" INDICATES FEW OR NO CLOUDS BELOW 12,000 FEET WITH NO
SIGNIFICANT WEATHER AND/OR OBSTRUCTIONS TO VISIBILITY.

* - THESE STATIONS ARE NOT NWS STATIONS...THUS NOT UNDER NWS
QUALITY CONTROL.  THEY ALSO DO NOT REPORT WEATHER SUCH
AS PRECIPITATION OR FOG.

IAZ001>003-012>014-020>022-031>034-043>046-252000-
   NORTHWEST IOWA

CITY           SKY/WX    TMP DP  RH WIND       PRES   REMARKS
CARROLL *      CLOUDY    54  46  76 N20       29.48F
CHEROKEE *     CLOUDY    45  43  94 NE5       29.55F
DENISON *      CLOUDY    50  45  81 N13G22    29.51F
LE MARS *      CLOUDY    43  41  93 N10       29.57F
ORANGE CITY *  LGT RAIN  43  39  87 N6        29.56F
SHELDON *      MIX PCPN  41  39  93 N13       29.55R
SIOUX CITY     CLOUDY    44  41  89 N15       29.56F
SPENCER        CLOUDY    44  41  89 E6        29.56R
STORM LAKE *   CLOUDY    45  43  93 NE9       29.55S
$$

IAZ055>058-069>071-079>083-090>094-252000-
   SOUTHWEST IOWA

CITY           SKY/WX    TMP DP  RH WIND       PRES   REMARKS
ATLANTIC *     CLOUDY    61  50  67 NE15      29.43F
AUDUBON *      PTSUNNY   57  48  72 NE14      29.47F
CLARINDA *     CLOUDY    70  52  52 VRB6      29.43F
COUNCIL BLFS * CLOUDY    54  48  82 NW13G20   29.48S
CRESTON *      CLOUDY    68  48  49 SE15      29.43F
HARLAN  *      CLOUDY    55  46  71 N14G20    29.50S
LAMONI         CLOUDY    70  50  49 S10G16    29.43F
RED OAK *      CLOUDY    64  52  63 N15       29.42S
SHENANDOAH *   CLOUDY    64  48  55 NW14G20   29.43S
$$

IAZ047>049-059>061-072>074-084-252000-
   CENTRAL IOWA

CITY           SKY/WX    TMP DP  RH WIND       PRES   REMARKS
AMES           PTSUNNY   68  51  54 E6        29.47F
ANKENY *       PTSUNNY   72  50  46 SE9       29.46F
BOONE *        PTSUNNY   66  50  55 NE13      29.47S
CHARITON *     CLOUDY    70  50  49 SE10G18   29.43F
DES MOINES     CLOUDY    74  48  39 SE16      29.44F
GRINNELL*      PTSUNNY   73  45  36 SE14G23   29.48F
KNOXVILLE *    CLOUDY    73  48  40 SE14G23   29.43F
MARSHALLTOWN   CLOUDY    67  52  58 E6        29.48F
NEWTON *       PTSUNNY   73  48  40 SE21      29.45F
PELLA *        CLOUDY    74  47  38 SE14      29.47F
PERRY *          N/A     67  48  49 N9        29.46F
$$

IAZ004>006-015-016-023>025-035-036-252000-
   NORTH CENTRAL IOWA

CITY           SKY/WX    TMP DP  RH WIND       PRES   REMARKS
ALGONA *       DRIZZLE   45  45 100 NE14      29.55R
CLARION *      PTSUNNY   57  52  82 NE12      29.52F
ESTHERVILLE    CLOUDY    42  42 100 N16       29.53R
FORT DODGE *   CLOUDY    52  45  76 N12       29.54F
MASON CITY     CLOUDY    53  50  89 N10       29.55R
FOREST CITY *  DRIZZLE   46  45  93 N3        29.55R
WEBSTER CITY * CLOUDY    59  52  77 N8        29.49F
IOWA FALLS *     N/A     65  50  57 NE7       29.50F
$$

IAZ007>011-017>019-026>030-037>042-050>054-066-252000-
   NORTHEAST IOWA

CITY           SKY/WX    TMP DP  RH WIND       PRES   REMARKS
CEDAR RAPIDS   CLOUDY    74  49  41 SE13      29.49F
CHARLES CITY * DRIZZLE   57  50  77 NE7       29.52F
CLINTON *      MOSUNNY   75  47  36 SE18G28   29.54F
DECORAH *      CLOUDY    63  52  67 E7        29.52F
DUBUQUE        CLOUDY    69  49  48 E12       29.53F
MONTICELLO *   MOSUNNY   73  45  35 SE15G22   29.51S
OELWEIN *      CLOUDY    68  52  56 SE10      29.52S
WATERLOO       PTSUNNY   67  51  56 SE8       29.50F
$$

IAZ064-065-067-068-078-252000-
   EAST CENTRAL IOWA

CITY           SKY/WX    TMP DP  RH WIND       PRES   REMARKS
DAVENPORT      PTSUNNY   76  43  30 SE22G29   29.53F
IOWA CITY      CLOUDY    74  48  39 SE15G23   29.51F
MT. PLEASANT * MOSUNNY   76  42  29 SE16G24   29.48F
MUSCATINE *    PTSUNNY   75  46  35 SE12G26   29.51F
QUAD CITIES    CLOUDY    75  45  34 SE15G24   29.52F
$$

IAZ062-063-075>077-085>089-095>099-252000-
   SOUTHEAST IOWA

CITY           SKY/WX    TMP DP  RH WIND       PRES   REMARKS
BURLINGTON     SUNNY     76  46  34 S13G31    29.49F
FAIRFIELD *    PTSUNNY   73  46  38 SE17G25   29.47F
FORT MADISON * SUNNY     79  46  31 S14G24    29.49F
KEOKUK *       SUNNY     75  46  35 SE16G28   29.47F
OSKALOOSA *      N/A     73  44  35 S16       29.47F
CENTERVILLE *    N/A     72  48  43 SE15      29.45F
OTTUMWA        CLOUDY    74  46  36 SE16      29.46F
WASHINGTON *   CLOUDY    77  45  31 SE17G28   29.49F
$$

ABBREVIATIONS USED IN REMARKS
   TC - TEMPERATURES IN CELSIUS
  WCI - WIND CHILL INDEX
   HX - HEAT INDEX
  VSB - VISIBILITY
$$





USA.gov is the U.S. government's official web portal to all federal, state and local government web resources and services.